Location: Banska Bystrica
(48.7330°N, 19.1500°E)
Time: 20:56:33
(UTC+02:00)

ISS - Visible Passes

Search period start: 26 May 2019 00:00
Search period end: 05 June 2019 00:00
Orbit: 408 x 418 km, 51.6° (Epoch: 27 May)

Date Brightness Start Highest point End Pass type
(mag) Time Alt. Az. Time Alt. Az. Time Alt. Az.
26 May -1.0 01:05:07 10° W 01:05:08 10° W 01:05:08 10° W visible
26 May -3.4 22:38:41 10° WNW 22:42:02 63° NNE 22:44:25 18° E visible
27 May -2.2 00:15:29 10° WNW 00:17:13 25° W 00:17:13 25° W visible
27 May -3.0 21:49:13 10° WNW 21:52:30 53° N 21:55:49 10° E visible
27 May -3.8 23:25:56 10° WNW 23:29:15 58° SSW 23:29:19 58° SSW visible
28 May -3.9 22:36:27 10° WNW 22:39:48 83° SSW 22:41:27 28° ESE visible
29 May -1.3 00:13:41 10° W 00:14:15 13° W 00:14:15 13° W visible
29 May -3.6 21:46:58 10° WNW 21:50:19 74° NNE 21:53:36 10° ESE visible
29 May -2.5 23:23:52 10° W 23:26:24 28° SW 23:26:24 28° SW visible
30 May -3.3 22:34:13 10° WNW 22:37:25 43° SSW 22:38:34 30° SSE visible
31 May -3.7 21:44:39 10° WNW 21:47:59 65° SSW 21:50:46 14° SE visible
31 May -1.4 23:22:22 10° WSW 23:23:35 13° SW 23:23:35 13° SW visible
01 Jun -2.1 22:32:14 10° W 22:34:51 21° SW 22:35:48 19° SSW visible
02 Jun -2.7 21:42:26 10° W 21:45:28 32° SW 21:48:04 13° SSE visible
04 Jun -1.5 21:40:40 10° W 21:42:45 16° SW 21:44:50 10° S visible
